Location: PSU-Greenbush Astrophysical Observatory
(37.5140°N, 94.9880°W)
Time: 15:29:37
(UTC-06:00)

Altair - Pass Details

Date: 24 January 2020
Orbit: 1502 x 1682 km, 47.2° (Epoch: 19 February)

Event Time Altitude Azimuth Distance (km) Brightness Sun altitude
Rises 12:11:49 0° 284° (WNW) 4,926 10.0 33.1°
Reaches altitude 10° 12:15:11 10° 290° (WNW) 3,944 9.5 33.1°
Maximum altitude 12:24:58 49° 3° (N) 2,075 8.2 33.3°
Drops below altitude 10° 12:34:37 10° 77° (ENE) 3,896 9.6 33.3°
Sets 12:37:55 0° 83° (E) 4,862 10.0 33.3°
